Portada
METAR-TAF:

METAR-TAF

Aeroports :

Fayetteville, Tennessee, Estats Units d'Amèrica

latitud: 35-03-35N, longitud: 086-33-50W, altitud: 300 m

Observació

L'informe es va fer fa 14 minuts, a les 09:35 UTC
Vent 3 kt del Nord/Nord-Oest
Temperatura 16°C
Humitat 94%
Pressió 1018 hPa
Visibilitat: 16.1 km
Cel cobert a una alçada de 1000 ft

METAR: KFYM 260935Z AUTO 34003KT 10SM OVC010 16/15 A3007 RMK A01

Hora: 04:49 (09:49 UTC)


TAF: manca

Observacions i pronòstics meteorològics de més de 4000 aeroports (METAR i TAF).

Les estacions disponibles són els punts grocs i vermells al mapa.

Posi el ratolí al punt desitjat per veure el nom de l'estació.

Feu clic per veure les observacions i els pronòstics meteorològics.

Per canviar el mapa: feu clic els botons verds amb una creu de color negre per apropar; al botó verd amb un guió per allunyar la imatge; o en les fletxes verdes per a mapes adjacents.


METAR-TAF: